Hourly Data Report for June 01, 2012

All times are specified in Local Standard Time (LST). Add 1 hour to adjust for Daylight Saving Time where and when it is observed.

VICTORIA HARTLAND CS
BRITISH COLUMBIA

48°32'01.800" N
123°27'32.900" W
154.10 m
1018FJ5

Download Data

Hourly Data (June 2012)
Hourly Data Report for June 1, 2012
Temp Definition
°C
Dew Point Temp Definition
°C
Rel Hum Definition
%
Wind Dir Definition
10's deg

Wind Spd Definition
km/h
Visibility Definition
km
Stn Press Definition
kPa
Hmdx Definition


Wind Chill Definition


Weather Definition


TIME
00:00 11.8 10.4 91   0   99.68     LegendNANA
01:00 11.7 10.4 92   0   99.59     LegendNANA
02:00 11.7 10.4 92   0   99.52     LegendNANA
03:00 11.9 10.6 92   0   99.49     LegendNANA
04:00 12.2 10.9 92 19 4   99.41     LegendNANA
05:00 11.9 10.7 92 18 7   99.35     LegendNANA
06:00 12.2 11.0 92 18 6   99.32     LegendNANA
07:00 12.8 11.6 92 16 4   99.34     LegendNANA
08:00 12.9 11.7 92 16 6   99.36     LegendNANA
09:00 13.3 12.1 92 17 4   99.39     LegendNANA
10:00 13.9 12.7 92 16 4   99.43     LegendNANA
11:00 14.7 13.2 91 20 6   99.44     LegendNANA
12:00 19.0 12.0 64 18 9   99.44     LegendNANA
13:00 18.1 10.2 60 27 9   99.47     LegendNANA
14:00 18.6 9.0 54 23 11   99.50     LegendNANA
15:00 17.9 8.8 55 19 6   99.54     LegendNANA
16:00 16.4 6.9 53 29 7   99.53     LegendNANA
17:00 14.9 6.4 57 28 13   99.49     LegendNANA
18:00 14.6 4.1 49 28 13   99.45     LegendNANA
19:00 14.1 5.7 57 21 6   99.48     LegendNANA
20:00 12.6 7.6 72 26 2   99.44     LegendNANA
21:00 12.4 7.6 72   0   99.45     LegendNANA
22:00 14.1 1.4 42 28 13   99.40     LegendNANA
23:00 13.5 1.6 44 29 9   99.34     LegendNANA

Notes on Data Quality.

Legend

  • E = Estimated
  • M = Missing
  • NA = Not Available
  • ‡ = Partner data that is not subject to review by the National Climate Archives
Date modified: